Regional Weather Roundup
Issued by NWS Charleston, SC

Current Version | Previous Version | Graphics & Text | Print | Product List | Glossary Off
Versions: 1 2 3 4 5 6 7 8 9 10 11 12 13 14 15 16 17 18 19 20 21 22 23 24 25 26 27 28 29 30 31 32 33 34 35 36 37 38 39 40 41 42 43 44 45 46 47 48 49 50

000
ASUS42 KCHS 150425
RWRCHS

REGIONAL WEATHER ROUNDUP
NATIONAL WEATHER SERVICE CHARLESTON SC
1200 AM EDT MON SEP 15 2014

NOTE: "FAIR" INDICATES FEW OR NO CLOUDS BELOW 12,000 FEET WITH NO
SIGNIFICANT WEATHER AND/OR OBSTRUCTIONS TO VISIBILITY.

NOT ALL STATIONS ARE QUALITY CONTROLLED BY THE NATIONAL
WEATHER SERVICE. USE DATA WITH CAUTION...ESPECIALLY
DEWPOINT OBSERVATIONS.

SCZ027-030-031-034>040-042>050-150500-
...SOUTH CAROLINA...

CITY           SKY/WX    TMP DP  RH WIND       PRES   REMARKS
N CHARLESTON   MOCLDY    73  70  90 NE7       30.19F
WATERFRONT PRK   N/A     73 N/A N/A NE8         N/A
FORT JOHNSON   NOT AVBL
MOUNT PLEASANT FAIR      72  72 100 N5        30.19S FOG
JOHNS ISLAND   PTCLDY    73  73 100 CALM      30.18F FOG
PINOPOLIS        N/A     73  68  83 E9        30.14S
MONCKS CORNER    N/A     72  70  94 CALM      30.20S
SUMMERVILLE    NOT AVBL
BEAUFORT MCAS  CLOUDY    76  73  91 W7        30.18F
BEAUFORT ARPT  CLOUDY    75  75 100 N6        30.17F FOG
HILTON HEAD IS CLOUDY    79  75  89 CALM      30.18F
GEORGETOWN     NOT AVBL
WALTERBORO     CLOUDY    72 N/A N/A CALM      30.20F HAZE
ORANGEBURG     CLOUDY    71  66  84 NE3       30.21S
BARNWELL       CLOUDY    72  70  94 E3        30.21S
AIKEN          HVY RAIN  70  70 100 NE5       30.25S
MANNING        CLOUDY    70 N/A N/A E3        30.21S
KINGSTREE      NOT AVBL
COLUMBIA       CLOUDY    71  64  78 E5        30.21S
SUMTER         PTCLDY    67  63  87 NE3       30.20F
FLORENCE       CLOUDY    69  64  84 E7        30.21F
MYRTLE BEACH   CLOUDY    70  64  83 N6        30.19F
N MYRTLE BEACH CLOUDY    69  66  90 N3        30.19F

$$

GAZ063-065-086>088-099>101-113>116-118-119-134-136>141-150-150500-
...GEORGIA...

CITY           SKY/WX    TMP DP  RH WIND       PRES   REMARKS
SAVANNAH ARPT  LGT RAIN  74  71  91 NE5       30.18F
HUNTER AAF     LGT RAIN  77  77 100 N7        30.15F
FORT STEWART   CLOUDY    77  75  94 NE1       30.16S
STATESBORO     NOT AVBL
SYLVANIA       DRIZZLE   76  75  98 NE3       30.19F
CLAXTON        NOT AVBL
THOMSON        CLOUDY    72  71  98 CALM      30.26S
AUGUSTA-BUSH   CLOUDY    71  69  93 N3        30.20S
AUGUSTA-DANIEL CLOUDY    72  67  84 NE6       30.21F
SWAINSBORO     CLOUDY    75  75 100 E3        30.20S
VIDALIA        CLOUDY    73  72  94 CALM      30.18F
ALMA           CLOUDY    78  73  84 CALM      30.17S
WAYCROSS       MOCLDY    79  77  93 CALM      30.15F
JESUP            N/A     79  77  94 CALM      30.16S
BRUNSWICK      MOCLDY    79  73  83 CALM      30.16F
SAINT SIMONS   MOCLDY    82  74  76 SE7       30.16S

$$

SCZ027-028-034-036>038-045-046-048>050-GAZ119-141-150500-
...LAKE AND SUPPLEMENTAL COASTAL OBSERVATIONS...

STATION/POSITION TIME  TEMP    WIND        PRES    WAVE   SWELL
                       AIR SEA DIR/SP/G            HT/PER HT/PER/DIR
                 (UTC) (F)     (DEG/KT/KT) (MB)    (FT/S) (FT/S/D)
UPR LAKE MARION  NOT AVBL
WINYAH BAY       0400   71     340/  4     1022.0S
LAKE MURRAY      0400   70      30/  3/  6 1022.7S
ACE BASIN NERRS  0400   74      20/  2     1022.0S
FORT PULASKI     0400   81     150/  1/  2 1021.6F
SAPELO ISLAND    0400   81     130/  3     1022.0S

$$

ANZ835-935-AMZ111-154-330-350-352-354-374-450-454-472-150500-
...C-MAN AND BUOY OBSERVATIONS...

STATION/POSITION TIME  TEMP    WIND        PRES    WAVE   SWELL
                       AIR SEA DIR/SP/G            HT/PER HT/PER/DIR
                 (UTC) (F)     (DEG/KT/KT) (MB)    (FT/S) (FT/S/D)
FOLLY BEACH CMAN 0400   75      30/  9/ 12 1022.4F
BUOY 41004       0400   80 83  130/  2/  4 1021.1F   3/ 6   3/ 6
BUOY 41008       0400   83 84  160/  8/ 12 1021.2F   2/ 3   2/160/ 5
5E ST. MARYS GA  0400      84                N/A     2/ 3
FRYING PAN BUOY  NOT AVBL
BUOY 41025       0400   73     360/ 14/ 17 1021.0F   4/ 8   2/ 30/ 8
CAPE LOOKOUT NC  0400   71      20/  7/  9 1021.8F
BUOY 41002       0339   80 83  240/ 12/ 14 1021.4F   2/ 5   2/ 60/ 8
BUOY 41010       0400   83 85  150/  8/ 10 1021.6F   2/ 4   2/180/ 4
BUOY 41012       NOT AVBL
ST AUGUSTINE FL  0400   80     190/  9/ 11 1021.7F
CAPERS NEARSHORE 0300   76      50/ 12/ 14   N/A
FRIPP NEARSHORE  NOT AVBL


$$


USA.gov is the U.S. government's official web portal to all federal, state and local government web resources and services.